Simultaneous Nadir Overpasses (SNOs) Predictions

Prediction of SNOs between LANDSAT-8 and METOP-A Satellite Orbit:

Table of predicted SNOs for the next 14.0 days since TLE Epoch: 4/27/2019
Index Date (LANDSAT-8) Time (LANDSAT-8) Lat,Lon (LANDSAT-8) SZA (LANDSAT-8 ) Date (METOP-A) Time (METOP-A) Lat,Lon (METOP-A) SZA (METOP-A ) Distance(km) Time Diff (sec)
1 04/27/2019 04:18:56 81.47, 160.85 70.42 04/27/2019 04:19:14 81.46, 160.83 70.42 0.90 18
2 04/29/2019 23:03:44 -81.47, 59.58 110.45 04/29/2019 23:02:48 -81.46, 59.56 110.48 0.79 56
3 04/29/2019 23:53:10 81.47,-132.73 69.55 04/29/2019 23:53:27 81.46,-132.59 69.57 2.36 17
4 05/02/2019 18:37:57 -81.47, 126.03 111.29 05/02/2019 18:37:00 -81.46, 126.15 111.30 2.05 57
5 05/02/2019 19:27:23 81.47, -66.31 68.71 05/02/2019 19:27:40 81.46, -66.43 68.70 1.99 17
6 05/05/2019 14:12:11 -81.47,-167.52 112.09 05/05/2019 14:11:14 -81.46,-167.67 112.14 2.48 57
7 05/05/2019 15:01:37 81.47, 0.10 67.90 05/05/2019 15:01:53 81.46, 0.13 67.91 0.69 16
8 05/08/2019 09:46:25 -81.47,-101.08 112.87 05/08/2019 09:45:27 -81.46,-101.10 112.90 0.74 58




NCC Satellite Simultaneous Nadir Overpasses (SNOs) Prediction Service
